sat.trackr.live / text

‹ back to catalog

STARLINK-35025

NORAD 65430 · 2025-192AC

PAYLOAD ACTIVE UNKNOWN

§ Identity

Operator
Country
US
Launch date
2025-08-31
Launch site
AFETR
Launch vehicle
Mass (kg)
RCS (m²)

Purposes: comms

External: N2YO · Heavens-Above · Gunter

§ Orbital elements

Epoch: 2026-09-20T21:41:11.708736Z

Period
93.85 min
Inclination
53.1572°
Eccentricity
0.0001513
Mean motion
15.34411569 rev/d
Perigee alt
461.6 km
Apogee alt
463.7 km
Semi-major
6,840.8 km
B*
5.4018e-4
RAAN
41.9629°
Arg perigee
42.5116°
Mean anomaly
317.6004°
Rev number
5,932

§ Raw data

STARLINK-350251 65430U 25192AC  26263.90360774  .00017925  00000+0  54018-3 0  99962 65430  53.1572  41.9629 0001513  42.5116 317.6004 15.34411569 59322

JSON: /api/v1/satellites/65430 · /tle

For live sub-satellite position, see the globe view (requires WebGL).

§ Visibility from observer

Set your observer location to see the next 7 days of passes ≥ 10°. The values pass through the URL so the page stays shareable.

No JS? Fill the form by hand. The geolocation button needs JavaScript.